UEA8115 ZBYN-ZBCF

Flight info

Callsign UEA8115
Flight time N/A
Altitude 29100
Route ISLEP G212 SOTMU B339 HUR B334 KAKAT
Aircraft A319/M-SDE2E3FGHIRWXY/LB1

Departure

Time 2026-04-26 09:42
Airport Taiyuan Wusu International Airport (ZBYN)

Arrival

Time N/A
Airport Chifeng Yulong Airport (ZBCF)
Time Latitude Longitude Altitude Speed Heading
2026-04-26 09:22 37.75261 112.62940 2591 ft 0 kts 38°
2026-04-26 09:27 37.75259 112.62938 2591 ft 1 kts 38°
2026-04-26 09:27 37.75247 112.62927 2591 ft 2 kts 38°
2026-04-26 09:27 37.75235 112.62915 2591 ft 2 kts 38°
2026-04-26 09:28 37.75223 112.62903 2591 ft 2 kts 49°
2026-04-26 09:28 37.75215 112.62888 2591 ft 2 kts 63°
2026-04-26 09:28 37.75209 112.62869 2591 ft 2 kts 79°
2026-04-26 09:28 37.75208 112.62851 2591 ft 2 kts 84°
2026-04-26 09:29 37.75206 112.62832 2591 ft 1 kts 83°
2026-04-26 09:29 37.75206 112.62829 2591 ft 0 kts 83°
2026-04-26 09:31 37.75207 112.62841 2591 ft 3 kts 83°
2026-04-26 09:31 37.75191 112.62882 2591 ft 7 kts 145°
2026-04-26 09:32 37.75127 112.62898 2591 ft 10 kts 172°
2026-04-26 09:32 37.75057 112.62878 2591 ft 11 kts 217°
2026-04-26 09:32 37.74989 112.62815 2591 ft 12 kts 215°
2026-04-26 09:32 37.74907 112.62808 2591 ft 13 kts 158°
2026-04-26 09:33 37.74810 112.62862 2591 ft 16 kts 157°
2026-04-26 09:33 37.74692 112.62928 2591 ft 19 kts 152°
2026-04-26 09:33 37.74589 112.63023 2591 ft 9 kts 141°
2026-04-26 09:33 37.74520 112.63049 2591 ft 12 kts 198°
2026-04-26 09:34 37.74442 112.62971 2591 ft 15 kts 227°
2026-04-26 09:34 37.74359 112.62889 2590 ft 15 kts 182°
2026-04-26 09:34 37.74269 112.62979 2591 ft 18 kts 127°
2026-04-26 09:34 37.74186 112.63118 2591 ft 21 kts 127°
2026-04-26 09:35 37.74092 112.63276 2591 ft 23 kts 127°
2026-04-26 09:35 37.73989 112.63444 2591 ft 24 kts 127°
2026-04-26 09:35 37.73884 112.63616 2591 ft 24 kts 128°
2026-04-26 09:35 37.73779 112.63791 2591 ft 25 kts 128°
2026-04-26 09:36 37.73672 112.63968 2591 ft 25 kts 127°
2026-04-26 09:36 37.73565 112.64145 2591 ft 25 kts 127°
2026-04-26 09:36 37.73457 112.64324 2591 ft 25 kts 127°
2026-04-26 09:36 37.73349 112.64503 2591 ft 25 kts 127°
2026-04-26 09:37 37.73239 112.64683 2591 ft 25 kts 127°
2026-04-26 09:37 37.73131 112.64864 2591 ft 25 kts 127°
2026-04-26 09:37 37.73023 112.65044 2591 ft 25 kts 127°
2026-04-26 09:37 37.72913 112.65226 2591 ft 25 kts 127°
2026-04-26 09:38 37.72805 112.65405 2591 ft 25 kts 127°
2026-04-26 09:38 37.72715 112.65556 2591 ft 11 kts 127°
2026-04-26 09:38 37.72665 112.65640 2591 ft 12 kts 133°
2026-04-26 09:38 37.72610 112.65642 2591 ft 0 kts 216°
2026-04-26 09:40 37.72598 112.65631 2591 ft 4 kts 216°
2026-04-26 09:40 37.72556 112.65593 2591 ft 9 kts 216°
2026-04-26 09:41 37.72525 112.65549 2591 ft 6 kts 271°
2026-04-26 09:41 37.72541 112.65509 2591 ft 0 kts 307°
2026-04-26 09:41 37.72545 112.65504 2591 ft 1 kts 307°
2026-04-26 09:41 37.72556 112.65484 2591 ft 6 kts 307°
2026-04-26 09:42 37.72702 112.65241 2591 ft 69 kts 307°
2026-04-26 09:42 37.73129 112.64528 2592 ft 131 kts 307°
2026-04-26 09:42 37.73771 112.63441 2758 ft 165 kts 308°
2026-04-26 09:42 37.74463 112.62296 3298 ft 167 kts 308°
2026-04-26 09:43 37.74924 112.61523 3699 ft 169 kts 309°
2026-04-26 09:43 37.75864 112.59936 4517 ft 172 kts 309°
2026-04-26 09:43 37.76621 112.58663 4900 ft 187 kts 309°
2026-04-26 09:43 37.77433 112.57301 5268 ft 204 kts 308°
2026-04-26 09:44 37.78341 112.55777 5598 ft 227 kts 308°
2026-04-26 09:44 37.79331 112.54109 6059 ft 245 kts 308°
2026-04-26 09:44 37.80383 112.52336 6544 ft 263 kts 308°
2026-04-26 09:44 37.81519 112.50423 7094 ft 279 kts 308°
2026-04-26 09:45 37.82686 112.48454 7964 ft 282 kts 307°
2026-04-26 09:45 37.83852 112.46488 8945 ft 280 kts 307°
2026-04-26 09:45 37.85005 112.44541 9914 ft 279 kts 307°
2026-04-26 09:45 37.86174 112.42565 10690 ft 285 kts 306°
2026-04-26 09:46 37.87389 112.40509 11154 ft 303 kts 306°
2026-04-26 09:46 37.88490 112.38142 11554 ft 321 kts 290°
2026-04-26 09:46 37.88885 112.35322 11929 ft 340 kts 270°
2026-04-26 09:46 37.88394 112.32307 12238 ft 361 kts 248°
2026-04-26 09:47 37.86915 112.29606 12544 ft 384 kts 225°
2026-04-26 09:47 37.84780 112.27514 12873 ft 399 kts 219°
2026-04-26 09:47 37.82494 112.25452 13375 ft 408 kts 214°
2026-04-26 09:47 37.79811 112.24114 13990 ft 418 kts 194°
2026-04-26 09:48 37.76885 112.23959 14618 ft 427 kts 175°
2026-04-26 09:48 37.74017 112.25033 15123 ft 438 kts 155°
2026-04-26 09:48 37.72321 112.26408 15434 ft 445 kts 142°
2026-04-26 09:48 37.69608 112.30376 16128 ft 451 kts 127°
2026-04-26 09:49 37.67760 112.33594 16587 ft 457 kts 126°
2026-04-26 09:49 37.65958 112.36917 17032 ft 461 kts 119°
2026-04-26 09:49 37.64865 112.40699 17481 ft 463 kts 99°
2026-04-26 09:49 37.64782 112.44757 17943 ft 462 kts 79°
2026-04-26 09:50 37.65699 112.48549 18346 ft 458 kts 60°
2026-04-26 09:50 37.67531 112.51829 18766 ft 453 kts 43°
2026-04-26 09:50 37.69750 112.54628 19207 ft 454 kts 39°
2026-04-26 09:50 37.71234 112.56448 19465 ft 457 kts 39°
2026-04-26 09:51 37.74077 112.60496 19927 ft 469 kts 50°
2026-04-26 09:51 37.75722 112.64040 20331 ft 478 kts 59°
2026-04-26 09:51 37.76931 112.67996 20671 ft 486 kts 69°
2026-04-26 09:51 37.77914 112.72171 21031 ft 491 kts 70°
2026-04-26 09:52 37.78836 112.76346 21402 ft 494 kts 70°
2026-04-26 09:52 37.80702 112.84780 22051 ft 500 kts 70°
2026-04-26 09:52 37.81652 112.88997 22340 ft 504 kts 69°
2026-04-26 09:53 37.82623 112.93272 22599 ft 507 kts 69°
2026-04-26 09:53 37.83594 112.97546 22898 ft 510 kts 69°
2026-04-26 09:53 37.84576 113.01872 23207 ft 511 kts 69°
2026-04-26 09:53 37.85231 113.04753 23423 ft 512 kts 69°
2026-04-26 09:54 37.86545 113.10533 23883 ft 513 kts 69°
2026-04-26 09:54 37.87519 113.14848 24217 ft 513 kts 69°
2026-04-26 09:54 37.88182 113.17784 24483 ft 513 kts 69°
2026-04-26 09:54 37.89159 113.22115 24855 ft 513 kts 69°
2026-04-26 09:55 37.90462 113.27899 25270 ft 516 kts 69°
2026-04-26 09:55 37.91450 113.32302 25607 ft 517 kts 69°
2026-04-26 09:55 37.92432 113.36682 25946 ft 518 kts 69°
2026-04-26 09:55 37.93413 113.41072 26306 ft 518 kts 68°
2026-04-26 09:56 37.94434 113.45446 26669 ft 517 kts 66°
2026-04-26 09:56 37.95637 113.49736 27035 ft 514 kts 62°
2026-04-26 09:56 37.97037 113.53909 27368 ft 512 kts 58°
2026-04-26 09:56 37.98601 113.58009 27661 ft 513 kts 56°
2026-04-26 09:57 38.00196 113.62057 27950 ft 514 kts 56°
2026-04-26 09:57 38.01810 113.66137 28199 ft 517 kts 57°
2026-04-26 09:57 38.03429 113.70294 28408 ft 521 kts 57°
2026-04-26 09:57 38.05037 113.74465 28662 ft 523 kts 57°
2026-04-26 09:58 38.06527 113.78343 28907 ft 524 kts 56°
2026-04-26 09:58 38.08128 113.82513 29022 ft 527 kts 56°
2026-04-26 09:58 38.11351 113.90890 29026 ft 527 kts 56°
2026-04-26 09:59 38.13985 113.97700 29019 ft 528 kts 56°
2026-04-26 09:59 38.17495 114.06880 29003 ft 528 kts 57°
2026-04-26 10:00 38.20171 114.13891 29003 ft 527 kts 56°
2026-04-26 10:00 38.23919 114.23648 28991 ft 527 kts 56°
2026-04-26 10:01 38.26604 114.30669 28993 ft 528 kts 56°
2026-04-26 10:01 38.30323 114.40443 28985 ft 527 kts 56°
2026-04-26 10:02 38.33498 114.48817 28977 ft 528 kts 56°
2026-04-26 10:02 38.36692 114.57274 28975 ft 527 kts 56°
2026-04-26 10:03 38.39733 114.65359 28981 ft 525 kts 57°
2026-04-26 10:03 38.42903 114.73834 28968 ft 526 kts 57°
2026-04-26 10:04 38.46044 114.82233 28973 ft 527 kts 57°
2026-04-26 10:04 38.49193 114.90656 28966 ft 525 kts 57°
2026-04-26 10:05 38.52330 114.99082 28970 ft 524 kts 57°
2026-04-26 10:05 38.55461 115.07502 28956 ft 524 kts 57°
2026-04-26 10:06 38.58045 115.14510 28965 ft 523 kts 58°
2026-04-26 10:06 38.61649 115.24336 28968 ft 523 kts 57°
2026-04-26 10:07 38.64747 115.32738 28972 ft 521 kts 57°
2026-04-26 10:07 38.67819 115.41103 28974 ft 521 kts 57°
2026-04-26 10:08 38.70894 115.49508 28985 ft 521 kts 57°
2026-04-26 10:08 38.74305 115.57643 28974 ft 516 kts 52°
2026-04-26 10:09 38.77315 115.64187 28980 ft 515 kts 51°
2026-04-26 10:09 38.81578 115.73477 28994 ft 514 kts 52°
2026-04-26 10:10 38.85196 115.81418 28986 ft 514 kts 53°
2026-04-26 10:10 38.88791 115.89323 29000 ft 514 kts 53°
2026-04-26 10:11 38.92386 115.97252 28991 ft 512 kts 53°
2026-04-26 10:11 38.95959 116.05145 29007 ft 511 kts 53°
2026-04-26 10:12 38.99510 116.13007 29019 ft 509 kts 53°
2026-04-26 10:12 39.03077 116.20933 29009 ft 509 kts 53°
2026-04-26 10:13 39.06598 116.28775 28997 ft 507 kts 53°
2026-04-26 10:13 39.10136 116.36665 28990 ft 507 kts 53°
2026-04-26 10:14 39.13682 116.44553 29007 ft 506 kts 54°
2026-04-26 10:14 39.17292 116.52409 28977 ft 501 kts 47°
2026-04-26 10:15 39.19529 116.55685 28987 ft 488 kts 35°
2026-04-26 10:15 39.21634 116.57812 28976 ft 477 kts 25°
2026-04-26 10:15 39.23171 116.58971 28984 ft 471 kts 19°